Regional Weather Roundup
Issued by NWS Mt. Holly, NJ

Current Version | Previous Version | Text Only | Print | Product List | Glossary Off
Versions: 1 2 3 4 5 6 7 8 9 10 11 12 13 14 15 16 17 18 19 20 21 22 23 24 25 26 27 28 29 30 31 32 33 34 35 36 37 38 39 40 41 42 43 44 45 46 47 48 49 50

000
ASUS41 KPHI 180712
RWRPHI

REGIONAL WEATHER ROUNDUP
NATIONAL WEATHER SERVICE MOUNT HOLLY NJ
300 AM EDT FRI AUG 18 2017

NOTE:  "FAIR" INDICATES FEW OR NO CLOUDS BELOW 12,000 FEET WITH NO
SIGNIFICANT WEATHER AND/OR OBSTRUCTIONS TO VISIBILITY.

 * = STATION DOES NOT REPORT PRECIPITATION (E.G. RAIN, SNOW, ETC.)
        OR FOG.

NJZ015>026-180800-
SOUTHERN NEW JERSEY

CITY           SKY/WX    TMP DP  RH WIND       PRES   REMARKS
POMONA         MOCLDY    77  73  87 S8        29.93S
WILDWOOD*      CLOUDY    76  72  87 S10       29.93F
MILLVILLE      CLOUDY    77  75  93 CALM      29.92S
WRIGHTSTOWN    CLOUDY    73  70  90 S6        29.89F
MOUNT HOLLY    CLOUDY    73  70  90 VRB3      29.91F
TRENTON        CLOUDY    74  70  87 S7        29.91F

$$
NJZ001>014-180800-
NORTHERN NEW JERSEY

CITY           SKY/WX    TMP DP  RH WIND       PRES   REMARKS
SUSSEX         MOCLDY    69  68  96 CALM      29.91F
ANDOVER*         N/A     72  69  90 CALM      29.92F
MORRISTOWN     CLOUDY    72  72 100 CALM      29.92S FOG
NEWARK         CLOUDY    73  72  96 S9        29.91F
TETERBORO      MOCLDY    77  73  87 S8        29.90F
CALDWELL       CLOUDY    75  73  93 CALM      29.92F
SOMERVILLE     CLOUDY    72  71  97 S3        29.90S FOG
ALLAIRE*       CLOUDY    74  71  91 S3        29.93F
TOMS RIVER*    PTCLDY    73  71  93 S5        29.93F

$$
PAZ043-044-047-054-055-060>062-066>071-180800-
EASTERN PENNSYLVANIA

CITY           SKY/WX    TMP DP  RH WIND       PRES   REMARKS
PHILADELPHIA   CLOUDY    76  69  79 S6        29.91F
NORTH PHILA    CLOUDY    76  70  82 S5        29.92F
BLUE BELL*     CLOUDY    72  68  88 S6        29.92F
DOYLESTOWN     PTCLDY    72  69  90 S3        29.90F
QUAKERTOWN*    MOCLDY    73  72  94 S3        29.92S
PERKASIE*      PTSUNNY   73  72  94 CALM      29.92F
POTTSTOWN      MOCLDY    73  71  93 VRB5      29.92F
LANCASTER      CLOUDY    75  73  93 CALM      29.89F
COATESVILLE    CLOUDY    72  72 100 VRB5      29.92F
READING        CLOUDY    75  73  93 S7        29.86F
ALLENTOWN      CLOUDY    76  70  82 S7        29.90F
MOUNT POCONO   LGT RAIN  69  69 100 S8        29.96S FOG
HAZLETON         N/A     72  70  94 S5        29.95F THUNDER FOG
LEHIGHTON      CLOUDY    72  72 100 CALM      29.90F
WILKES BARRE   LGT RAIN  75  71  87 VRB5      29.88F

$$
DEZALL-MDZ008-012-015-019-020-180800-
DELAWARE AND EASTERN MARYLAND

CITY           SKY/WX    TMP DP  RH WIND       PRES   REMARKS
WILMINGTON     CLOUDY    75  69  81 S9        29.91F
DOVER          CLEAR     73  68  83 S6        29.89F
GEORGETOWN     CLEAR     75  71  87 S7        29.92F
EASTON         PTCLDY    76  73  88 S6        29.93F
ABERDEEN       CLOUDY    73  71  94 CALM      29.89F
PATUXENT       CLEAR     78  75  90 SW7       29.89S
OCEAN CITY     CLEAR     77  75  93 VRB6      29.94F
WALLOPS ISLAND CLEAR     77  77 100 S9        29.93F
CAMBRIDGE      PTCLDY    75  73  94 S6        29.90F
SALISBURY      CLEAR     75  75 100 S6        29.92F

$$
PAZ001-021-NYZ056-072-MDZ011-DCZ001-180800-
OTHER NEARBY LOCATIONS

CITY           SKY/WX    TMP DP  RH WIND       PRES   REMARKS
HARRISBURG     CLOUDY    77  74  90 S8        29.86F
STATE COLLEGE  CLOUDY    72  72  98 SW3       29.87F FOG
WILLIAMSPORT   CLOUDY    77  74  90 VRB5      29.82F
BINGHAMTON     LGT RAIN  70  67  90 S8        29.86F
NEW YORK CITY  MOCLDY    76  72  87 CALM      29.94F
BALTIMORE      MOCLDY    75  73  93 CALM      29.88F
WASHINGTON DC  PTCLDY    79  75  87 S8        29.89S

$$



USA.gov is the U.S. government's official web portal to all federal, state and local government web resources and services.